QPF
0.11 0.10 0.10 0.10 0.11 0.10 0.11 0.12 0.10 0.10 0.10 0.07 0.06 0.05 0.05 0.05 0.05 0.04 0.04 0.03 0.03 0.05 0.09 0.11 0.10 0.09 0.08 0.06 0.05 0.04 0.03 0.02 0.02 0.02 0.02 0.01 0.01 0.01 0.00 0.00 0.00 0.00 0.00
0.09 0.09 0.09 0.10 0.10 0.10 0.10 0.10 0.10 0.09 0.08 0.06 0.05 0.05 0.05 0.04 0.04 0.04 0.04 0.04 0.03 0.04 0.07 0.11 0.12 0.12 0.13 0.10 0.06 0.06 0.04 0.03 0.03 0.02 0.02 0.02 0.01 0.01 0.01 0.00 0.01 0.00 0.00
0.07 0.06 0.07 0.08 0.08 0.09 0.11 0.11 0.10 0.08 0.06 0.05 0.05 0.05 0.05 0.04 0.03 0.02 0.03 0.04 0.04 0.03 0.04 0.07 0.11 0.12 0.13 0.15 0.10 0.07 0.07 0.06 0.04 0.03 0.02 0.02 0.02 0.01 0.01 0.01 0.00 0.00 0.00
0.05 0.05 0.05 0.05 0.07 0.08 0.10 0.11 0.10 0.08 0.06 0.05 0.05 0.05 0.04 0.05 0.04 0.03 0.02 0.03 0.05 0.05 0.07 0.07 0.10 0.12 0.12 0.14 0.14 0.13 0.10 0.07 0.07 0.05 0.03 0.02 0.02 0.02 0.01 0.01 0.00 0.00 0.00
0.04 0.04 0.05 0.05 0.05 0.05 0.06 0.05 0.05 0.05 0.05 0.05 0.04 0.04 0.05 0.05 0.04 0.03 0.03 0.03 0.05 0.07 0.12 0.10 0.08 0.10 0.11 0.12 0.14 0.16 0.15 0.11 0.08 0.06 0.05 0.03 0.03 0.02 0.01 0.01 0.00 0.00 0.00
0.02 0.03 0.04 0.04 0.04 0.03 0.03 0.03 0.04 0.04 0.04 0.04 0.04 0.04 0.03 0.03 0.04 0.04 0.04 0.04 0.04 0.03 0.07 0.08 0.11 0.09 0.10 0.11 0.15 0.18 0.19 0.19 0.14 0.10 0.07 0.06 0.05 0.03 0.01 0.01 0.01 0.00 0.00
0.02 0.02 0.02 0.03 0.04 0.03 0.03 0.02 0.02 0.03 0.04 0.03 0.03 0.03 0.03 0.02 0.02 0.02 0.02 0.03 0.03 0.02 0.05 0.08 0.10 0.09 0.08 0.08 0.09 0.12 0.15 0.18 0.20 0.17 0.13 0.09 0.07 0.05 0.03 0.02 0.01 0.01 0.01
0.02 0.01 0.02 0.02 0.02 0.03 0.03 0.02 0.02 0.02 0.01 0.02 0.02 0.02 0.02 0.01 0.00 0.00 0.01 0.01 0.02 0.03 0.03 0.05 0.07 0.09 0.08 0.10 0.08 0.06 0.10 0.14 0.19 0.21 0.18 0.15 0.12 0.10 0.08 0.05 0.02 0.01 0.01
0.01 0.01 0.01 0.01 0.01 0.01 0.02 0.02 0.02 0.01 0.01 0.01 0.01 0.01 0.01 0.01 0.01 0.01 0.01 0.00 0.01 0.02 0.02 0.03 0.05 0.07 0.08 0.09 0.11 0.08 0.07 0.09 0.14 0.20 0.20 0.17 0.14 0.13 0.13 0.11 0.08 0.03 0.01
0.00 0.00 0.00 0.00 0.00 0.00 0.01 0.00 0.00 0.01 0.01 0.00 0.00 0.00 0.00 0.00 0.01 0.00 0.01 0.01 0.01 0.01 0.01 0.01 0.02 0.04 0.06 0.08 0.09 0.08 0.06 0.05 0.08 0.16 0.21 0.20 0.18 0.16 0.14 0.15 0.14 0.11 0.06
0.00 0.00 0.00 0.00 0.01 0.00 0.01 0.00 0.00 0.00 0.00 0.01 0.00 0.00 0.00 0.00 0.00 0.00 0.01 0.00 0.01 0.01 0.02 0.02 0.02 0.02 0.04 0.05 0.07 0.07 0.06 0.07 0.07 0.09 0.13 0.18 0.22 0.22 0.19 0.17 0.16 0.15 0.12
0.00 0.00 0.00 0.00 0.01 0.00 0.00 0.00 0.00 0.00 0.00 0.00 0.00 0.00 0.00 0.00 0.00 0.00 0.01 0.01 0.01 0.00 0.00 0.01 0.01 0.01 0.01 0.02 0.03 0.04 0.04 0.06 0.06 0.06 0.07 0.09 0.14 0.19 0.20 0.21 0.20 0.19 0.17
0.00 0.00 0.00 0.00 0.00 0.00 0.00 0.00 0.00 0.00 0.00 0.00 0.00 0.00 0.00 0.00 0.00 0.01 0.01 0.01 0.00 0.00 0.00 0.00 0.00 0.00 0.00 0.01 0.03 0.03 0.03 0.04 0.05 0.06 0.05 0.05 0.07 0.10 0.14 0.17 0.19 0.19 0.18
0.00 0.00 0.00 0.00 0.00 0.00 0.00 0.00 0.00 0.00 0.00 0.00 0.00 0.00 0.00 0.00 0.00 0.00 0.01 0.01 0.00 0.00 0.00 0.00 0.00 0.00 0.00 0.00 0.01 0.02 0.03 0.04 0.05 0.06 0.05 0.04 0.04 0.04 0.06 0.09 0.15 0.17 0.18
0.00 0.00 0.00 0.00 0.00 0.00 0.00 0.00 0.00 0.00 0.00 0.00 0.00 0.00 0.00 0.00 0.00 0.00 0.00 0.01 0.01 0.01 0.00 0.00 0.00 0.00 0.00 0.00 0.00 0.00 0.01 0.02 0.03 0.03 0.04 0.04 0.04 0.04 0.04 0.05 0.09 0.11 0.12
0.00 0.00 0.00 0.00 0.00 0.00 0.00 0.00 0.00 0.00 0.00 0.00 0.00 0.00 0.00 0.00 0.00 0.00 0.00 0.01 0.01 0.01 0.01 0.00 0.00 0.00 0.00 0.00 0.00 0.00 0.01 0.01 0.01 0.01 0.02 0.04 0.04 0.04 0.04 0.04 0.05 0.06 0.09
0.00 0.00 0.00 0.00 0.00 0.00 0.00 0.00 0.00 0.00 0.00 0.00 0.00 0.00 0.00 0.00 0.00 0.00 0.00 0.00 0.00 0.01 0.01 0.00 0.00 0.00 0.00 0.00 0.00 0.00 0.01 0.01 0.01 0.01 0.01 0.02 0.04 0.05 0.04 0.04 0.03 0.04 0.05
0.00 0.00 0.00 0.00 0.00 0.00 0.00 0.00 0.00 0.00 0.00 0.00 0.00 0.00 0.00 0.00 0.01 0.00 0.00 0.00 0.00 0.01 0.01 0.00 0.00 0.00 0.00 0.00 0.00 0.00 0.00 0.00 0.00 0.01 0.00 0.00 0.02 0.04 0.06 0.06 0.05 0.04 0.03
0.00 0.00 0.00 0.00 0.00 0.00 0.00 0.00 0.00 0.00 0.00 0.00 0.00 0.00 0.00 0.01 0.01 0.01 0.01 0.01 0.01 0.00 0.00 0.00 0.00 0.00 0.00 0.00 0.01 0.00 0.00 0.00 0.00 0.00 0.00 0.00 0.00 0.01 0.03 0.06 0.08 0.07 0.04
0.00 0.00 0.00 0.00 0.00 0.00 0.00 0.00 0.00 0.00 0.00 0.00 0.00 0.00 0.00 0.00 0.01 0.01 0.01 0.01 0.01 0.01 0.01 0.01 0.01 0.01 0.01 0.00 0.01 0.01 0.01 0.01 0.01 0.00 0.00 0.00 0.00 0.00 0.00 0.01 0.04 0.06 0.06
0.00 0.00 0.00 0.00 0.00 0.00 0.00 0.00 0.00 0.00 0.00 0.00 0.00 0.00 0.00 0.00 0.00 0.00 0.00 0.00 0.01 0.01 0.01 0.01 0.01 0.01 0.01 0.01 0.01 0.01 0.01 0.01 0.01 0.00 0.01 0.01 0.00 0.00 0.00 0.00 0.00 0.01 0.03
0.00 0.00 0.00 0.00 0.00 0.00 0.00 0.00 0.00 0.00 0.00 0.00 0.00 0.00 0.00 0.00 0.00 0.00 0.00 0.00 0.00 0.01 0.02 0.02 0.02 0.02 0.02 0.02 0.02 0.02 0.01 0.01 0.01 0.01 0.01 0.01 0.01 0.01 0.00 0.00 0.00 0.00 0.00
0.00 0.01 0.01 0.01 0.00 0.00 0.01 0.01 0.00 0.00 0.00 0.00 0.00 0.00 0.00 0.00 0.00 0.00 0.00 0.00 0.00 0.00 0.00 0.01 0.01 0.02 0.02 0.02 0.03 0.03 0.03 0.02 0.02 0.01 0.02 0.01 0.00 0.01 0.00 0.00 0.00 0.00 0.00
0.01 0.02 0.01 0.01 0.00 0.01 0.01 0.01 0.00 0.00 0.00 0.00 0.00 0.00 0.00 0.00 0.00 0.00 0.00 0.00 0.00 0.00 0.00 0.00 0.01 0.01 0.01 0.02 0.03 0.03 0.03 0.03 0.02 0.01 0.02 0.01 0.00 0.01 0.00 0.00 0.00 0.00 0.00
0.01 0.01 0.01 0.00 0.00 0.00 0.00 0.00 0.00 0.00 0.00 0.00 0.00 0.00 0.00 0.00 0.00 0.00 0.00 0.00 0.00 0.01 0.00 0.00 0.00 0.00 0.00 0.00 0.01 0.01 0.02 0.03 0.02 0.01 0.02 0.02 0.00 0.01 0.00 0.00 0.00 0.00 0.00
0.00 0.00 0.00 0.00 0.00 0.00 0.00 0.00 0.00 0.00 0.00 0.00 0.00 0.00 0.00 0.00 0.00 0.00 0.00 0.00 0.01 0.01 0.01 0.01 0.01 0.01 0.01 0.01 0.00 0.01 0.02 0.03 0.03 0.02 0.01 0.02 0.01 0.01 0.01 0.00 0.00 0.01 0.00
MSLP
1017.71 1017.92 1018.09 1018.26 1018.44 1018.65 1018.87 1019.10 1019.30 1019.42 1019.45 1019.37 1019.20 1018.96 1018.73 1018.54 1018.46 1018.52 1018.72 1019.02 1019.39 1019.77 1020.11 1020.38 1020.57 1020.69 1020.77 1020.85 1020.94 1021.08 1021.26 1021.47 1021.69 1021.89 1022.07 1022.21 1022.33 1022.44 1022.56 1022.70 1022.86 1023.06 1023.27
1017.82 1017.99 1018.13 1018.26 1018.42 1018.60 1018.82 1019.06 1019.28 1019.43 1019.50 1019.47 1019.34 1019.14 1018.92 1018.73 1018.62 1018.63 1018.77 1019.00 1019.30 1019.61 1019.91 1020.15 1020.32 1020.44 1020.53 1020.61 1020.72 1020.86 1021.05 1021.27 1021.50 1021.72 1021.92 1022.09 1022.24 1022.38 1022.52 1022.67 1022.83 1023.02 1023.23
1017.95 1018.09 1018.19 1018.30 1018.43 1018.60 1018.82 1019.07 1019.31 1019.50 1019.61 1019.62 1019.53 1019.37 1019.16 1018.97 1018.83 1018.78 1018.83 1018.98 1019.19 1019.42 1019.65 1019.84 1019.98 1020.08 1020.17 1020.25 1020.37 1020.52 1020.72 1020.95 1021.20 1021.44 1021.67 1021.88 1022.06 1022.23 1022.40 1022.57 1022.75 1022.95 1023.15
1018.05 1018.17 1018.25 1018.34 1018.47 1018.64 1018.86 1019.12 1019.38 1019.60 1019.76 1019.81 1019.76 1019.62 1019.43 1019.22 1019.05 1018.93 1018.90 1018.95 1019.05 1019.18 1019.32 1019.45 1019.54 1019.62 1019.69 1019.78 1019.90 1020.07 1020.28 1020.52 1020.79 1021.06 1021.32 1021.56 1021.78 1021.99 1022.19 1022.39 1022.59 1022.80 1023.01
1018.11 1018.22 1018.30 1018.39 1018.52 1018.69 1018.92 1019.19 1019.47 1019.72 1019.91 1019.99 1019.97 1019.86 1019.68 1019.46 1019.25 1019.07 1018.96 1018.90 1018.89 1018.92 1018.96 1019.00 1019.04 1019.08 1019.14 1019.22 1019.35 1019.52 1019.74 1020.00 1020.29 1020.58 1020.86 1021.13 1021.38 1021.62 1021.86 1022.09 1022.33 1022.57 1022.80
1018.11 1018.23 1018.32 1018.43 1018.57 1018.76 1019.01 1019.28 1019.57 1019.84 1020.04 1020.14 1020.15 1020.06 1019.89 1019.66 1019.42 1019.19 1019.00 1018.84 1018.73 1018.65 1018.59 1018.55 1018.53 1018.53 1018.56 1018.63 1018.76 1018.94 1019.17 1019.44 1019.73 1020.03 1020.33 1020.61 1020.89 1021.15 1021.41 1021.68 1021.95 1022.22 1022.48
1018.08 1018.21 1018.33 1018.46 1018.63 1018.84 1019.10 1019.38 1019.67 1019.93 1020.13 1020.25 1020.28 1020.20 1020.04 1019.82 1019.57 1019.30 1019.04 1018.81 1018.61 1018.43 1018.28 1018.16 1018.07 1018.02 1018.02 1018.08 1018.20 1018.38 1018.62 1018.89 1019.18 1019.48 1019.77 1020.05 1020.33 1020.59 1020.87 1021.15 1021.44 1021.74 1022.04
1018.04 1018.19 1018.34 1018.50 1018.70 1018.93 1019.19 1019.48 1019.76 1020.01 1020.20 1020.32 1020.35 1020.30 1020.16 1019.95 1019.70 1019.42 1019.13 1018.84 1018.56 1018.31 1018.08 1017.88 1017.73 1017.63 1017.60 1017.64 1017.75 1017.93 1018.15 1018.41 1018.69 1018.97 1019.23 1019.49 1019.74 1019.99 1020.25 1020.53 1020.83 1021.15 1021.48
1018.01 1018.18 1018.36 1018.56 1018.78 1019.03 1019.30 1019.58 1019.84 1020.07 1020.25 1020.37 1020.40 1020.37 1020.25 1020.07 1019.84 1019.57 1019.27 1018.95 1018.64 1018.32 1018.03 1017.77 1017.57 1017.43 1017.36 1017.37 1017.46 1017.62 1017.82 1018.05 1018.30 1018.54 1018.76 1018.97 1019.17 1019.38 1019.60 1019.86 1020.15 1020.47 1020.81
1018.02 1018.20 1018.41 1018.63 1018.88 1019.15 1019.41 1019.68 1019.92 1020.12 1020.29 1020.39 1020.44 1020.42 1020.34 1020.20 1020.01 1019.76 1019.48 1019.16 1018.82 1018.48 1018.15 1017.84 1017.59 1017.40 1017.30 1017.28 1017.34 1017.46 1017.63 1017.83 1018.03 1018.21 1018.38 1018.52 1018.66 1018.81 1018.98 1019.19 1019.45 1019.75 1020.09
1018.05 1018.25 1018.47 1018.72 1018.99 1019.26 1019.52 1019.77 1019.98 1020.17 1020.31 1020.41 1020.46 1020.47 1020.42 1020.33 1020.18 1019.98 1019.73 1019.43 1019.09 1018.73 1018.38 1018.04 1017.75 1017.52 1017.38 1017.32 1017.34 1017.42 1017.55 1017.70 1017.84 1017.97 1018.07 1018.15 1018.23 1018.31 1018.42 1018.58 1018.79 1019.05 1019.37
1018.10 1018.30 1018.54 1018.81 1019.08 1019.35 1019.60 1019.83 1020.03 1020.19 1020.31 1020.40 1020.46 1020.49 1020.48 1020.43 1020.33 1020.17 1019.96 1019.69 1019.37 1019.02 1018.65 1018.29 1017.97 1017.71 1017.53 1017.43 1017.40 1017.44 1017.51 1017.61 1017.70 1017.77 1017.82 1017.84 1017.86 1017.89 1017.94 1018.04 1018.20 1018.42 1018.69
1018.14 1018.35 1018.60 1018.87 1019.15 1019.41 1019.65 1019.86 1020.03 1020.17 1020.27 1020.35 1020.41 1020.45 1020.47 1020.46 1020.40 1020.29 1020.11 1019.88 1019.58 1019.24 1018.87 1018.50 1018.17 1017.88 1017.66 1017.52 1017.44 1017.43 1017.46 1017.50 1017.54 1017.57 1017.57 1017.56 1017.53 1017.52 1017.53 1017.59 1017.70 1017.87 1018.10
1018.17 1018.39 1018.64 1018.91 1019.18 1019.43 1019.65 1019.84 1019.99 1020.10 1020.18 1020.24 1020.30 1020.34 1020.37 1020.38 1020.35 1020.27 1020.13 1019.92 1019.65 1019.33 1018.97 1018.60 1018.26 1017.95 1017.70 1017.52 1017.40 1017.34 1017.32 1017.31 1017.31 1017.31 1017.28 1017.24 1017.20 1017.17 1017.17 1017.21 1017.29 1017.42 1017.61
1018.16 1018.39 1018.64 1018.91 1019.16 1019.40 1019.60 1019.76 1019.88 1019.96 1020.02 1020.06 1020.10 1020.14 1020.17 1020.18 1020.16 1020.10 1019.98 1019.79 1019.55 1019.25 1018.91 1018.55 1018.20 1017.89 1017.62 1017.40 1017.24 1017.13 1017.07 1017.02 1016.99 1016.95 1016.91 1016.87 1016.83 1016.80 1016.81 1016.84 1016.92 1017.04 1017.19
1018.14 1018.37 1018.62 1018.88 1019.12 1019.33 1019.50 1019.63 1019.72 1019.77 1019.80 1019.81 1019.83 1019.84 1019.86 1019.86 1019.84 1019.78 1019.67 1019.51 1019.28 1019.01 1018.69 1018.36 1018.02 1017.71 1017.42 1017.18 1016.99 1016.83 1016.72 1016.63 1016.55 1016.49 1016.44 1016.40 1016.37 1016.36 1016.39 1016.45 1016.55 1016.67 1016.82
1018.09 1018.33 1018.58 1018.82 1019.03 1019.22 1019.35 1019.45 1019.50 1019.52 1019.52 1019.50 1019.49 1019.48 1019.47 1019.45 1019.42 1019.36 1019.26 1019.11 1018.91 1018.66 1018.38 1018.07 1017.76 1017.45 1017.17 1016.91 1016.68 1016.48 1016.31 1016.17 1016.05 1015.95 1015.87 1015.82 1015.80 1015.82 1015.87 1015.96 1016.09 1016.25 1016.41
1018.00 1018.26 1018.50 1018.72 1018.91 1019.06 1019.16 1019.22 1019.24 1019.23 1019.19 1019.15 1019.11 1019.07 1019.04 1019.01 1018.96 1018.90 1018.80 1018.67 1018.50 1018.29 1018.04 1017.77 1017.49 1017.20 1016.92 1016.64 1016.38 1016.14 1015.91 1015.70 1015.52 1015.37 1015.25 1015.17 1015.14 1015.16 1015.23 1015.35 1015.52 1015.71 1015.92
1017.87 1018.13 1018.36 1018.57 1018.73 1018.85 1018.92 1018.94 1018.93 1018.89 1018.83 1018.77 1018.71 1018.65 1018.60 1018.56 1018.51 1018.44 1018.36 1018.25 1018.11 1017.94 1017.74 1017.51 1017.26 1017.00 1016.72 1016.43 1016.14 1015.85 1015.56 1015.28 1015.02 1014.79 1014.60 1014.47 1014.40 1014.40 1014.47 1014.61 1014.80 1015.04 1015.29
1017.65 1017.91 1018.14 1018.33 1018.46 1018.55 1018.59 1018.58 1018.55 1018.49 1018.41 1018.34 1018.27 1018.21 1018.16 1018.12 1018.07 1018.02 1017.96 1017.88 1017.77 1017.64 1017.48 1017.30 1017.09 1016.85 1016.58 1016.28 1015.96 1015.62 1015.27 1014.91 1014.57 1014.25 1013.98 1013.77 1013.64 1013.59 1013.63 1013.76 1013.96 1014.22 1014.52
1017.30 1017.57 1017.79 1017.96 1018.08 1018.14 1018.16 1018.13 1018.08 1018.00 1017.93 1017.85 1017.79 1017.74 1017.70 1017.67 1017.65 1017.62 1017.58 1017.53 1017.46 1017.37 1017.26 1017.11 1016.93 1016.72 1016.46 1016.16 1015.81 1015.43 1015.02 1014.59 1014.17 1013.76 1013.40 1013.11 1012.89 1012.77 1012.76 1012.85 1013.03 1013.29 1013.62
1016.81 1017.08 1017.30 1017.46 1017.56 1017.60 1017.60 1017.56 1017.50 1017.43 1017.35 1017.29 1017.24 1017.21 1017.20 1017.19 1017.19 1017.19 1017.19 1017.17 1017.13 1017.08 1016.99 1016.88 1016.72 1016.52 1016.27 1015.97 1015.62 1015.21 1014.76 1014.29 1013.80 1013.32 1012.88 1012.50 1012.20 1012.00 1011.91 1011.94 1012.08 1012.31 1012.63
1016.16 1016.43 1016.65 1016.81 1016.90 1016.94 1016.93 1016.89 1016.83 1016.76 1016.69 1016.64 1016.62 1016.61 1016.62 1016.64 1016.67 1016.70 1016.72 1016.72 1016.71 1016.67 1016.61 1016.51 1016.37 1016.18 1015.94 1015.64 1015.29 1014.88 1014.42 1013.93 1013.41 1012.90 1012.41 1011.96 1011.59 1011.31 1011.14 1011.09 1011.16 1011.34 1011.61
1015.37 1015.66 1015.88 1016.04 1016.14 1016.19 1016.18 1016.14 1016.08 1016.02 1015.96 1015.92 1015.91 1015.92 1015.95 1016.00 1016.04 1016.09 1016.13 1016.14 1016.14 1016.10 1016.04 1015.94 1015.80 1015.61 1015.38 1015.10 1014.76 1014.38 1013.94 1013.47 1012.96 1012.45 1011.95 1011.48 1011.06 1010.72 1010.48 1010.34 1010.33 1010.43 1010.63
1014.51 1014.81 1015.05 1015.22 1015.34 1015.40 1015.40 1015.37 1015.31 1015.25 1015.20 1015.17 1015.16 1015.17 1015.21 1015.26 1015.32 1015.37 1015.40 1015.41 1015.39 1015.34 1015.26 1015.15 1014.99 1014.81 1014.58 1014.32 1014.01 1013.67 1013.29 1012.87 1012.42 1011.95 1011.48 1011.02 1010.59 1010.21 1009.91 1009.71 1009.60 1009.60 1009.71
1013.65 1013.96 1014.22 1014.42 1014.56 1014.64 1014.66 1014.64 1014.59 1014.52 1014.47 1014.42 1014.40 1014.41 1014.43 1014.47 1014.51 1014.55 1014.56 1014.55 1014.50 1014.42 1014.31 1014.17 1014.00 1013.80 1013.58 1013.34 1013.07 1012.78 1012.47 1012.13 1011.76 1011.37 1010.96 1010.54 1010.14 1009.76 1009.42 1009.15 1008.96 1008.86 1008.86
Thickness
5732 5730 5729 5728 5729 5728 5727 5726 5726 5725 5725 5726 5727 5728 5728 5728 5730 5731 5731 5727 5726 5725 5724 5724 5723 5721 5720 5719 5718 5718 5718 5717 5717 5717 5717 5716 5716 5715 5714 5714 5713 5712 5711
5729 5728 5727 5726 5726 5725 5724 5723 5723 5722 5722 5723 5724 5724 5724 5726 5726 5726 5728 5727 5724 5724 5723 5722 5721 5720 5719 5718 5717 5717 5716 5716 5716 5715 5715 5715 5715 5714 5713 5713 5712 5711 5711
5726 5726 5726 5725 5724 5723 5721 5720 5720 5719 5720 5721 5721 5722 5722 5721 5723 5723 5724 5725 5725 5723 5722 5721 5720 5719 5718 5717 5716 5715 5715 5715 5714 5714 5714 5713 5713 5713 5712 5712 5711 5711 5710
5724 5723 5724 5723 5720 5720 5720 5718 5718 5717 5717 5717 5718 5719 5720 5719 5719 5720 5721 5722 5722 5724 5722 5719 5718 5717 5716 5715 5715 5714 5714 5713 5713 5712 5712 5712 5712 5712 5711 5711 5711 5710 5709
5721 5721 5721 5719 5718 5718 5718 5718 5716 5715 5714 5714 5716 5717 5718 5718 5717 5718 5718 5719 5719 5719 5719 5718 5717 5716 5715 5714 5713 5712 5712 5712 5711 5711 5710 5710 5710 5710 5710 5710 5709 5709 5708
5719 5719 5718 5715 5716 5716 5714 5713 5711 5711 5712 5711 5715 5715 5715 5716 5716 5716 5716 5717 5716 5716 5717 5717 5716 5715 5714 5713 5712 5711 5710 5710 5710 5709 5709 5708 5708 5708 5708 5708 5708 5708 5708
5716 5716 5717 5713 5713 5714 5712 5712 5711 5710 5710 5709 5710 5711 5714 5715 5714 5713 5713 5714 5714 5714 5713 5713 5713 5714 5713 5711 5710 5710 5709 5708 5708 5707 5707 5707 5707 5706 5706 5706 5707 5707 5707
5714 5715 5713 5713 5712 5710 5709 5708 5707 5708 5708 5707 5706 5706 5706 5709 5708 5712 5710 5709 5709 5710 5710 5711 5709 5709 5709 5710 5709 5708 5707 5707 5706 5706 5705 5705 5705 5705 5704 5704 5705 5705 5705
5713 5712 5711 5712 5710 5711 5708 5706 5705 5703 5704 5704 5703 5701 5700 5702 5704 5707 5704 5705 5704 5704 5706 5706 5706 5705 5705 5705 5705 5705 5704 5705 5705 5704 5703 5703 5703 5703 5703 5703 5703 5703 5704
5712 5711 5710 5709 5709 5710 5706 5706 5705 5703 5700 5701 5701 5698 5697 5696 5693 5697 5701 5702 5700 5699 5700 5701 5702 5701 5701 5701 5701 5700 5700 5701 5701 5702 5701 5702 5701 5701 5701 5700 5701 5701 5702
5711 5710 5709 5708 5706 5707 5704 5702 5700 5699 5699 5698 5698 5696 5694 5692 5692 5689 5690 5693 5696 5698 5697 5695 5696 5696 5696 5696 5695 5696 5696 5696 5697 5698 5699 5699 5699 5698 5698 5698 5699 5699 5699
5711 5709 5708 5706 5705 5704 5701 5699 5697 5696 5695 5692 5692 5692 5691 5689 5688 5687 5685 5684 5686 5690 5690 5689 5690 5690 5690 5690 5689 5688 5689 5690 5691 5692 5693 5694 5695 5696 5696 5696 5697 5697 5697
5712 5707 5707 5704 5703 5700 5698 5696 5694 5693 5691 5688 5686 5687 5687 5685 5684 5681 5679 5680 5679 5683 5683 5684 5685 5683 5683 5683 5682 5680 5681 5683 5684 5686 5687 5689 5690 5692 5693 5694 5694 5695 5695
5712 5707 5704 5702 5699 5697 5696 5693 5693 5690 5687 5684 5684 5681 5680 5681 5679 5676 5674 5672 5671 5675 5677 5677 5678 5677 5676 5675 5673 5673 5675 5675 5676 5678 5680 5682 5684 5686 5688 5689 5691 5691 5692
5709 5705 5702 5699 5697 5694 5692 5690 5690 5685 5683 5682 5681 5678 5676 5676 5674 5672 5670 5667 5664 5663 5667 5670 5670 5670 5667 5667 5666 5666 5667 5668 5669 5670 5672 5674 5676 5679 5681 5684 5686 5687 5688
5705 5702 5700 5697 5695 5692 5690 5687 5686 5683 5679 5677 5675 5672 5669 5672 5669 5667 5665 5663 5661 5658 5657 5663 5661 5663 5660 5659 5659 5659 5660 5660 5661 5663 5664 5666 5669 5671 5674 5677 5680 5681 5683
5702 5700 5697 5695 5692 5690 5687 5684 5684 5680 5677 5675 5672 5670 5666 5664 5663 5662 5661 5658 5656 5654 5652 5655 5656 5656 5652 5650 5652 5652 5653 5655 5658 5658 5658 5659 5661 5663 5666 5669 5672 5674 5677
5701 5698 5696 5693 5690 5688 5684 5682 5679 5677 5674 5672 5669 5666 5663 5662 5658 5656 5654 5653 5651 5648 5645 5645 5646 5648 5646 5645 5644 5644 5647 5651 5652 5653 5653 5653 5654 5656 5658 5661 5664 5667 5670
5699 5697 5693 5690 5688 5685 5682 5679 5676 5674 5672 5669 5666 5663 5660 5657 5653 5652 5648 5647 5646 5645 5642 5640 5641 5641 5640 5640 5638 5639 5641 5641 5644 5647 5647 5647 5648 5649 5651 5654 5657 5660 5663
5698 5694 5691 5688 5686 5683 5680 5677 5674 5671 5668 5666 5663 5660 5657 5654 5651 5647 5645 5641 5639 5637 5636 5635 5635 5635 5634 5634 5632 5631 5634 5637 5638 5640 5642 5642 5642 5643 5645 5648 5650 5653 5656
5697 5693 5689 5686 5683 5681 5679 5676 5672 5669 5666 5663 5660 5657 5655 5651 5646 5642 5640 5638 5635 5632 5631 5630 5629 5629 5628 5625 5625 5625 5625 5626 5629 5631 5633 5636 5638 5640 5642 5642 5644 5647 5649
5694 5690 5687 5684 5681 5680 5675 5668 5665 5665 5662 5659 5657 5654 5652 5647 5643 5636 5632 5628 5625 5624 5624 5622 5622 5620 5618 5617 5616 5614 5615 5616 5618 5623 5624 5627 5630 5633 5636 5638 5641 5642 5643
5691 5687 5684 5681 5679 5675 5669 5664 5659 5657 5658 5657 5654 5650 5649 5649 5641 5638 5632 5625 5621 5616 5613 5612 5613 5612 5611 5611 5607 5606 5606 5606 5608 5611 5611 5615 5620 5624 5628 5632 5633 5634 5635
5689 5685 5681 5679 5676 5673 5666 5660 5655 5653 5654 5653 5651 5648 5644 5641 5639 5633 5629 5626 5623 5620 5615 5609 5608 5606 5605 5602 5599 5597 5597 5598 5600 5602 5603 5605 5611 5615 5621 5624 5626 5627 5629
5686 5682 5679 5676 5672 5669 5663 5657 5650 5651 5652 5650 5648 5645 5642 5638 5633 5626 5621 5619 5618 5616 5613 5609 5604 5601 5597 5594 5590 5589 5591 5592 5596 5599 5600 5600 5604 5607 5612 5617 5620 5622 5623
5682 5679 5677 5673 5670 5666 5661 5653 5646 5648 5649 5648 5646 5643 5638 5633 5628 5620 5616 5615 5612 5611 5609 5607 5601 5597 5593 5591 5586 5583 5584 5586 5589 5593 5595 5594 5596 5598 5603 5611 5615 5617 5618